�������l�o���
Date,Time,MP-1(��Sv/h),MP-2(��Sv/h),MP-3(��Sv/h),MP-4(��Sv/h),MP-5(��Sv/h),MP-6(��Sv/h),MP-7(��Sv/h),MP-8(��Sv/h),����,����(m/s),���J
2018/04/22,00:00,0.865,1.437,0.896,1.650,1.148,0.487,0.852,0.813,-,CALM,��
2018/04/22,00:10,0.867,1.437,0.898,1.653,1.148,0.487,0.852,0.816,���k��,1.5,��
2018/04/22,00:20,0.867,1.440,0.897,1.651,1.149,0.485,0.852,0.814,�k��,0.6,��
2018/04/22,00:30,0.864,1.438,0.895,1.655,1.149,0.488,0.853,0.813,���쓌,0.9,��
2018/04/22,00:40,0.866,1.439,0.896,1.652,1.152,0.486,0.853,0.814,�k,2.2,��
2018/04/22,00:50,0.866,1.437,0.895,1.653,1.152,0.487,0.853,0.814,�k�k��,2.6,��
2018/04/22,01:00,0.868,1.438,0.895,1.650,1.152,0.486,0.851,0.814,�k��,2.8,��
2018/04/22,01:10,0.866,1.438,0.896,1.653,1.151,0.484,0.851,0.814,��,2.3,��
2018/04/22,01:20,0.866,1.437,0.896,1.651,1.151,0.487,0.853,0.817,-,CALM,��
2018/04/22,01:30,0.866,1.435,0.894,1.650,1.152,0.485,0.854,0.815,-,CALM,��
2018/04/22,01:40,0.866,1.437,0.894,1.654,1.151,0.486,0.853,0.813,���k��,3.7,��
2018/04/22,01:50,0.865,1.438,0.897,1.650,1.150,0.487,0.854,0.815,���k��,4.4,��
2018/04/22,02:00,0.867,1.438,0.897,1.652,1.150,0.488,0.854,0.814,���k��,5.0,��
2018/04/22,02:10,0.866,1.438,0.895,1.654,1.150,0.489,0.853,0.816,���k��,3.4,��
2018/04/22,02:20,0.865,1.440,0.896,1.655,1.152,0.488,0.852,0.815,�k��,1.2,��
2018/04/22,02:30,0.865,1.437,0.896,1.652,1.151,0.487,0.853,0.813,�k��,1.7,��
2018/04/22,02:40,0.867,1.438,0.895,1.651,1.152,0.486,0.853,0.813,�k��,2.5,��
2018/04/22,02:50,0.866,1.437,0.896,1.653,1.150,0.486,0.852,0.814,�k,3.6,��
2018/04/22,03:00,0.867,1.438,0.898,1.652,1.153,0.487,0.854,0.815,�k�k��,2.6,��
2018/04/22,03:10,0.867,1.439,0.896,1.651,1.151,0.488,0.853,0.815,�k,2.9,��
2018/04/22,03:20,0.867,1.438,0.896,1.654,1.150,0.487,0.853,0.815,�k�k��,3.8,��
2018/04/22,03:30,0.868,1.438,0.898,1.655,1.153,0.486,0.854,0.815,�k��,1.9,��
2018/04/22,03:40,0.869,1.439,0.898,1.653,1.152,0.486,0.855,0.817,�k�k��,3.7,��
2018/04/22,03:50,0.868,1.440,0.899,1.653,1.151,0.486,0.853,0.814,�k��,5.6,��
2018/04/22,04:00,0.868,1.440,0.899,1.651,1.152,0.485,0.855,0.816,�k��,6.5,��
2018/04/22,04:10,0.869,1.441,0.896,1.656,1.149,0.486,0.853,0.814,���k��,7.3,��
2018/04/22,04:20,0.868,1.439,0.897,1.655,1.151,0.485,0.854,0.814,��,6.9,��
2018/04/22,04:30,0.867,1.439,0.898,1.657,1.152,0.487,0.853,0.816,���k��,7.8,��
2018/04/22,04:40,0.866,1.440,0.898,1.655,1.152,0.486,0.854,0.812,�k��,7.6,��
2018/04/22,04:50,0.870,1.440,0.899,1.657,1.152,0.487,0.853,0.816,�k��,6.8,��
2018/04/22,05:00,0.868,1.438,0.898,1.657,1.153,0.485,0.853,0.815,���k��,5.9,��
2018/04/22,05:10,0.868,1.440,0.898,1.657,1.152,0.486,0.854,0.813,���k��,5.3,��
2018/04/22,05:20,0.870,1.441,0.898,1.658,1.152,0.485,0.852,0.814,���k��,6.3,��
2018/04/22,05:30,0.868,1.440,0.897,1.656,1.151,0.483,0.851,0.814,���k��,7.9,��
2018/04/22,05:40,0.868,1.441,0.899,1.661,1.150,0.486,0.852,0.813,��,7.1,��
2018/04/22,05:50,0.868,1.437,0.898,1.659,1.152,0.486,0.853,0.814,��,5.7,��
2018/04/22,06:00,0.867,1.437,0.897,1.657,1.149,0.484,0.853,0.815,��,5.4,��
2018/04/22,06:10,0.870,1.438,0.897,1.657,1.150,0.487,0.853,0.816,���k��,4.6,��
2018/04/22,06:20,0.866,1.441,0.899,1.659,1.151,0.485,0.853,0.814,���k��,2.6,��
2018/04/22,06:30,0.869,1.439,0.898,1.656,1.152,0.485,0.854,0.815,���k��,3.1,��
2018/04/22,06:40,0.868,1.440,0.898,1.660,1.152,0.485,0.852,0.815,�k,1.2,��
2018/04/22,06:50,0.867,1.443,0.897,1.657,1.151,0.483,0.853,0.813,�k�k��,1.4,��
2018/04/22,07:00,0.866,1.440,0.896,1.658,1.152,0.482,0.854,0.813,��,1.4,��
2018/04/22,07:10,0.868,1.441,0.896,1.661,1.153,0.482,0.855,0.815,-,CALM,��
2018/04/22,07:20,0.867,1.439,0.896,1.663,1.150,0.482,0.853,0.815,-,CALM,��
2018/04/22,07:30,0.864,1.439,0.900,1.660,1.149,0.480,0.852,0.815,���쓌,1.2,��
2018/04/22,07:40,0.865,1.437,0.900,1.657,1.148,0.482,0.853,0.814,-,CALM,��
2018/04/22,07:50,0.865,1.438,0.899,1.660,1.153,0.483,0.854,0.816,���쓌,1.1,��
2018/04/22,08:00,0.868,1.437,0.896,1.658,1.152,0.482,0.855,0.815,��,0.6,��
2018/04/22,08:10,0.867,1.439,0.898,1.661,1.152,0.483,0.853,0.815,�쓌,0.6,��
2018/04/22,08:20,0.868,1.442,0.898,1.659,1.152,0.483,0.852,0.815,�쓌,1.4,��
2018/04/22,08:30,0.869,1.438,0.897,1.661,1.152,0.483,0.853,0.812,��쓌,1.2,��
2018/04/22,08:40,0.866,1.441,0.896,1.661,1.154,0.485,0.853,0.813,��,2.0,��
2018/04/22,08:50,0.866,1.442,0.898,1.661,1.154,0.483,0.853,0.814,��,2.5,��
2018/04/22,09:00,0.867,1.442,0.899,1.660,1.154,0.485,0.851,0.814,��쐼,3.2,��
2018/04/22,09:10,0.869,1.443,0.900,1.662,1.153,0.484,0.853,0.813,��쐼,2.6,��
2018/04/22,09:20,0.867,1.443,0.898,1.661,1.153,0.486,0.853,0.814,��,3.0,��
2018/04/22,09:30,0.869,1.444,0.898,1.663,1.152,0.485,0.854,0.813,�쓌,4.2,��
2018/04/22,09:40,0.868,1.444,0.898,1.663,1.152,0.485,0.853,0.814,�쓌,4.1,��
2018/04/22,09:50,0.870,1.448,0.899,1.660,1.155,0.485,0.852,0.813,�쓌,4.2,��
2018/04/22,10:00,0.868,1.446,0.899,1.665,1.155,0.485,0.853,0.813,�쓌,4.2,��
2018/04/22,10:10,0.870,1.446,0.900,1.664,1.155,0.485,0.854,0.813,�쓌,5.0,��
2018/04/22,10:20,0.872,1.447,0.901,1.663,1.157,0.487,0.854,0.816,��쓌,5.5,��
2018/04/22,10:30,0.870,1.450,0.900,1.663,1.156,0.486,0.854,0.815,��쓌,6.5,��
2018/04/22,10:40,0.871,1.448,0.901,1.667,1.158,0.486,0.854,0.814,��쓌,7.2,��
2018/04/22,10:50,0.870,1.450,0.899,1.666,1.158,0.486,0.853,0.814,�쓌,7.8,��
2018/04/22,11:00,0.872,1.449,0.902,1.666,1.159,0.487,0.854,0.815,��쓌,7.6,��
2018/04/22,11:10,0.870,1.450,0.902,1.664,1.158,0.488,0.854,0.815,��쓌,8.4,��
2018/04/22,11:20,0.869,1.451,0.900,1.663,1.158,0.487,0.855,0.813,��쓌,8.1,��
2018/04/22,11:30,0.873,1.451,0.900,1.662,1.157,0.487,0.854,0.812,��쓌,8.0,��
2018/04/22,11:40,0.872,1.455,0.902,1.662,1.160,0.489,0.853,0.812,��쓌,7.4,��
2018/04/22,11:50,0.874,1.452,0.903,1.665,1.158,0.488,0.855,0.813,��쓌,7.4,��
2018/04/22,12:00,0.872,1.451,0.901,1.665,1.162,0.488,0.855,0.815,��쓌,8.4,��
2018/04/22,12:10,0.872,1.453,0.903,1.663,1.161,0.488,0.855,0.814,��쓌,7.7,��
2018/04/22,12:20,0.873,1.456,0.900,1.664,1.162,0.489,0.854,0.816,��쓌,7.8,��
2018/04/22,12:30,0.874,1.454,0.903,1.662,1.160,0.488,0.854,0.816,��쓌,8.1,��
2018/04/22,12:40,0.873,1.453,0.903,1.666,1.165,0.489,0.856,0.815,��,8.7,��
2018/04/22,12:50,0.874,1.455,0.902,1.666,1.162,0.489,0.856,0.815,��,6.6,��
2018/04/22,13:00,0.872,1.457,0.905,1.667,1.164,0.488,0.857,0.815,��,8.3,��
2018/04/22,13:10,0.876,1.455,0.904,1.664,1.164,0.490,0.857,0.815,��,7.2,��
2018/04/22,13:20,0.874,1.456,0.906,1.666,1.165,0.489,0.856,0.814,��,7.4,��
2018/04/22,13:30,0.872,1.455,0.904,1.666,1.164,0.489,0.858,0.814,��,7.5,��
2018/04/22,13:40,0.874,1.457,0.902,1.668,1.165,0.489,0.855,0.815,��,9.5,��
2018/04/22,13:50,0.875,1.456,0.902,1.668,1.163,0.488,0.857,0.816,��,7.7,��
2018/04/22,14:00,0.874,1.455,0.904,1.668,1.164,0.488,0.856,0.814,��쓌,8.3,��
2018/04/22,14:10,0.875,1.455,0.904,1.668,1.163,0.488,0.853,0.815,��쓌,7.8,��
2018/04/22,14:20,0.872,1.457,0.904,1.669,1.166,0.488,0.854,0.816,��쓌,9.3,��
2018/04/22,14:30,0.872,1.457,0.903,1.668,1.164,0.490,0.855,0.813,��쓌,8.6,��
2018/04/22,14:40,0.873,1.458,0.903,1.667,1.165,0.489,0.856,0.815,��쓌,10.5,��
2018/04/22,14:50,0.875,1.458,0.905,1.667,1.165,0.488,0.855,0.815,��,10.3,��
2018/04/22,15:00,0.873,1.456,0.903,1.668,1.166,0.488,0.855,0.816,��쓌,10.3,��
2018/04/22,15:10,0.874,1.457,0.903,1.668,1.166,0.487,0.855,0.815,��쓌,9.3,��
2018/04/22,15:20,0.874,1.457,0.906,1.670,1.166,0.490,0.856,0.814,��,8.1,��
2018/04/22,15:30,0.877,1.456,0.906,1.668,1.168,0.488,0.856,0.815,��쓌,8.9,��
2018/04/22,15:40,0.872,1.457,0.905,1.669,1.166,0.489,0.857,0.814,��,7.3,��
2018/04/22,15:50,0.876,1.458,0.906,1.670,1.167,0.488,0.857,0.815,��,6.7,��
2018/04/22,16:00,0.874,1.457,0.906,1.668,1.168,0.488,0.855,0.815,��쓌,7.5,��
2018/04/22,16:10,0.874,1.459,0.903,1.670,1.166,0.488,0.856,0.815,��,8.4,��
2018/04/22,16:20,0.877,1.461,0.905,1.672,1.167,0.489,0.856,0.815,��쓌,7.6,��
2018/04/22,16:30,0.874,1.458,0.902,1.672,1.166,0.488,0.857,0.814,��,6.2,��
2018/04/22,16:40,0.870,1.458,0.902,1.669,1.169,0.491,0.856,0.814,���쓌,2.3,��
2018/04/22,16:50,0.872,1.459,0.904,1.668,1.166,0.488,0.853,0.815,�k��,6.5,��
2018/04/22,17:00,0.872,1.459,0.900,1.668,1.166,0.487,0.853,0.814,�k,7.0,��
2018/04/22,17:10,0.871,1.457,0.902,1.668,1.164,0.488,0.852,0.812,�k,6.7,��
2018/04/22,17:20,0.871,1.454,0.901,1.667,1.165,0.485,0.853,0.814,�k,6.7,��
2018/04/22,17:30,0.870,1.457,0.900,1.667,1.165,0.484,0.852,0.815,�k,6.3,��
2018/04/22,17:40,0.871,1.459,0.900,1.667,1.165,0.486,0.853,0.814,�k�k��,7.7,��
2018/04/22,17:50,0.869,1.458,0.902,1.668,1.164,0.487,0.851,0.814,�k,6.3,��
2018/04/22,18:00,0.870,1.459,0.898,1.668,1.162,0.485,0.851,0.817,�k�k��,6.5,��
2018/04/22,18:10,0.871,1.455,0.900,1.670,1.164,0.487,0.851,0.815,�k�k��,6.2,��
2018/04/22,18:20,0.870,1.457,0.901,1.666,1.164,0.486,0.850,0.816,�k�k��,6.7,��
2018/04/22,18:30,0.874,1.456,0.902,1.667,1.164,0.485,0.851,0.817,�k�k��,6.5,��
2018/04/22,18:40,0.874,1.457,0.901,1.669,1.165,0.486,0.850,0.816,�k�k��,6.5,��
2018/04/22,18:50,0.874,1.457,0.904,1.670,1.165,0.485,0.851,0.817,�k�k��,6.3,��
2018/04/22,19:00,0.872,1.455,0.906,1.670,1.166,0.484,0.853,0.814,�k�k��,5.8,��
2018/04/22,19:10,0.871,1.455,0.905,1.670,1.166,0.485,0.853,0.815,�k�k��,6.0,��
2018/04/22,19:20,0.870,1.457,0.903,1.671,1.166,0.484,0.852,0.817,�k�k��,6.6,��
2018/04/22,19:30,0.870,1.455,0.905,1.670,1.166,0.485,0.851,0.817,�k�k��,6.4,��
2018/04/22,19:40,0.873,1.454,0.902,1.670,1.166,0.484,0.852,0.816,�k�k��,6.5,��
2018/04/22,19:50,0.871,1.455,0.903,1.667,1.165,0.483,0.852,0.816,�k�k��,6.7,��
2018/04/22,20:00,0.871,1.453,0.902,1.667,1.165,0.484,0.851,0.816,�k�k��,6.5,��
2018/04/22,20:10,0.874,1.454,0.902,1.669,1.164,0.483,0.852,0.815,�k�k��,6.1,��
2018/04/22,20:20,0.872,1.455,0.900,1.668,1.165,0.483,0.853,0.817,�k�k��,6.0,��
2018/04/22,20:30,0.871,1.455,0.905,1.668,1.163,0.485,0.851,0.815,�k�k��,5.4,��
2018/04/22,20:40,0.870,1.455,0.899,1.669,1.165,0.485,0.850,0.815,�k�k��,6.5,��
2018/04/22,20:50,0.871,1.455,0.901,1.670,1.164,0.483,0.851,0.815,�k�k��,7.2,��
2018/04/22,21:00,0.872,1.454,0.902,1.668,1.165,0.484,0.853,0.816,�k�k��,6.5,��
2018/04/22,21:10,0.870,1.451,0.900,1.666,1.164,0.482,0.852,0.815,�k�k��,6.6,��
2018/04/22,21:20,0.869,1.454,0.901,1.668,1.162,0.482,0.852,0.813,�k�k��,6.8,��
2018/04/22,21:30,0.872,1.454,0.902,1.668,1.165,0.482,0.852,0.817,�k,6.8,��
2018/04/22,21:40,0.870,1.455,0.900,1.672,1.164,0.482,0.851,0.817,�k,7.6,��
2018/04/22,21:50,0.871,1.454,0.902,1.670,1.165,0.484,0.853,0.816,�k�k��,7.3,��
2018/04/22,22:00,0.870,1.453,0.901,1.669,1.164,0.483,0.853,0.817,�k�k��,6.5,��
2018/04/22,22:10,0.871,1.453,0.902,1.670,1.166,0.483,0.851,0.816,�k�k��,6.5,��
2018/04/22,22:20,0.871,1.455,0.900,1.668,1.165,0.483,0.851,0.816,�k�k��,6.8,��
2018/04/22,22:30,0.871,1.453,0.902,1.670,1.163,0.483,0.851,0.814,�k�k��,6.6,��
2018/04/22,22:40,0.872,1.455,0.902,1.670,1.161,0.484,0.849,0.816,�k,6.5,��
2018/04/22,22:50,0.870,1.452,0.901,1.669,1.164,0.482,0.848,0.816,�k,6.5,��
2018/04/22,23:00,0.870,1.453,0.899,1.670,1.164,0.482,0.849,0.815,�k�k��,6.4,��
2018/04/22,23:10,0.870,1.452,0.901,1.668,1.165,0.484,0.848,0.815,�k�k��,7.0,��
2018/04/22,23:20,0.868,1.455,0.901,1.669,1.163,0.482,0.849,0.816,�k�k��,7.5,��
2018/04/22,23:30,0.870,1.454,0.900,1.667,1.163,0.483,0.848,0.818,�k,6.9,��
2018/04/22,23:40,0.871,1.451,0.901,1.668,1.163,0.482,0.848,0.816,�k�k��,6.4,��
2018/04/22,23:50,0.870,1.452,0.901,1.668,1.165,0.484,0.845,0.815,�k�k��,6.1,��
